Location: Baller�as
(41.9020°N, 0.1554°W)
Time: 12:35:11
(UTC+00:00)

OBJECT-B - Pass Details

Date: 10 August 2020
Orbit: 422 x 433 km, 97.0° (Epoch: 17 September)

Event Time Altitude Azimuth Distance (km) Brightness Sun altitude
Exits shadow 19:52:52 - 149° (SSE) 1,653 3.2 -8.5°
Reaches altitude 10° 19:53:09 10° 148° (SSE) 1,535 3.1 -8.5°
Maximum altitude 19:56:18 45° 75° (ENE) 605 1.2 -9.0°
Drops below altitude 10° 19:59:28 10° 1° (N) 1,543 4.0 -9.6°
Sets 20:01:32 0° 355° (N) 2,414 5.2 -9.9°
